TimeGMT,TemperatureF,Dew PointF,Humidity,Sea Level PressureIn,VisibilityMPH,Wind Direction,Wind SpeedMPH,Gust SpeedMPH,PrecipitationIn,Events,Conditions,WindDirDegrees,DateUTC
12:00 AM,34,32,87,29.37,,West,8.9,,,,,270,2013-03-17 00:00:00
6:00 AM,34,33,95,29.28,,WNW,13.4,,,,,290,2013-03-17 06:00:00
7:00 AM,33.8,33.8,100,29.24,1.6,WNW,11.5,-,N/A,Rain,Light Rain Showers,290,2013-03-17 07:00:00
7:30 AM,33.8,33.8,100,29.21,-9999.0,WNW,9.2,-,N/A,,Mostly Cloudy,300,2013-03-17 07:30:00
8:00 AM,33.8,33.8,100,29.21,6.2,NW,9.2,-,N/A,,Mostly Cloudy,320,2013-03-17 08:00:00
8:30 AM,37.4,35.6,93,29.21,6.2,North,9.2,-,N/A,,Mostly Cloudy,350,2013-03-17 08:30:00
9:00 AM,37.4,35.6,93,29.21,6.2,North,16.1,-,N/A,,Mostly Cloudy,350,2013-03-17 09:00:00
9:30 AM,39.2,35.6,87,29.21,6.2,North,16.1,27.6,N/A,,Mostly Cloudy,350,2013-03-17 09:30:00
10:00 AM,39.2,35.6,87,29.21,6.2,North,19.6,34.5,N/A,,Mostly Cloudy,350,2013-03-17 10:00:00
10:30 AM,39.2,35.6,87,29.18,6.2,North,21.9,34.5,N/A,,Scattered Clouds,350,2013-03-17 10:30:00
11:00 AM,41.0,35.6,81,29.18,6.2,NNW,23.0,-,N/A,,Scattered Clouds,340,2013-03-17 11:00:00
11:30 AM,39.2,35.6,87,29.18,6.2,NNW,27.6,-,N/A,,Scattered Clouds,330,2013-03-17 11:30:00
12:00 PM,39,36,86,29.21,8,NNW,24.6,,,Rain,Light Rain Showers,340,2013-03-17 12:00:00
12:00 PM,39.2,35.6,87,29.18,6.2,NNW,25.3,39.1,N/A,Rain,Light Rain Showers,340,2013-03-17 12:00:00
12:30 PM,39.2,37.4,93,29.18,6.2,North,21.9,34.5,N/A,Rain,Light Rain Showers,350,2013-03-17 12:30:00
1:00 PM,39.2,37.4,93,29.18,5.6,NNW,21.9,35.7,N/A,Rain,Light Rain Showers,340,2013-03-17 13:00:00
1:30 PM,39.2,37.4,93,29.18,5.0,NNW,17.3,29.9,N/A,,Mostly Cloudy,340,2013-03-17 13:30:00
2:00 PM,39.2,37.4,93,29.15,5.0,North,18.4,36.8,N/A,Rain,Light Rain Showers,350,2013-03-17 14:00:00
2:30 PM,39.2,37.4,93,29.15,6.2,North,15.0,-,N/A,Rain,Light Rain Showers,360,2013-03-17 14:30:00
3:00 PM,39.2,37.4,93,29.15,6.2,North,13.8,25.3,N/A,Rain,Light Rain Showers,350,2013-03-17 15:00:00
3:30 PM,39.2,37.4,93,29.15,6.2,NNW,15.0,-,N/A,Rain,Light Rain Showers,330,2013-03-17 15:30:00
4:00 PM,39.2,37.4,93,29.15,5.0,NNW,15.0,-,N/A,Rain,Light Rain Showers,340,2013-03-17 16:00:00
4:30 PM,39.2,37.4,93,29.15,5.0,NNW,11.5,-,N/A,,Mostly Cloudy,340,2013-03-17 16:30:00
5:00 PM,37.4,37.4,100,29.15,6.2,NNW,6.9,-,N/A,Rain,Light Rain Showers,340,2013-03-17 17:00:00
6:00 PM,37,36,94,29.18,19,NW,4.5,,,Rain,Light Rain Showers,310,2013-03-17 18:00:00